Anchorage, AK

4:07 AM AKST on February 27, 2017 (GMT -0900)
Merrill

Weather History for PAMR - April, 2014

Change the Weather History Date:

Sunday, April 20, 2014

  Actual Average Record
Temperature  
Mean Temperature 44 °F -  
Max Temperature 59 °F 46 °F 59 °F (2014)
Min Temperature 30 °F 29 °F 23 °F (1997)
Degree Days  
Heating Degree Days 20    
Moisture  
Dew Point 24 °F    
Average Humidity 46    
Maximum Humidity 72    
Minimum Humidity 25    
Precipitation  
Precipitation 0.00 in - - ()
Sea Level Pressure  
Sea Level Pressure 29.66 in    
Wind  
Wind Speed 3 mph (WSW)    
Max Wind Speed 13 mph    
Max Gust Speed 23 mph    
Visibility 10 miles    
Events      
Averages and records for this station are not official NWS values.
T = Trace of Precipitation, MM = Missing Value Source: NWS Daily Summary

Daily Weather History Graph

Daily Weather History Graph

Search for Another Location

Airport or City:

Trip Planner

Search our weather history database for the weather conditions in past years. The results will help you decide how hot, cold, wet, or windy it might be!

Date:

Astronomy

Apr. 20, 2014 Rise Set
Actual Time 6:22 AM AKDT 9:35 PM AKDT
Civil Twilight 5:32 AM AKDT 10:26 PM AKDT
Nautical Twilight 4:20 AM AKDT 11:39 PM AKDT
Astronomical Twilight 2:30 AM AKDT 1:25 AM AKDT
Moon 2:59 AM AKDT (4/20) 10:19 AM AKDT (4/20)
Length of Visible Light 16h 54m
Length of Day
15h 12m
Waning Gibbous, 67% of the Moon is Illuminated
Apr 20
Waning Gibbous
Apr 21
Last Quarter
Apr 28
New
May 6
First Quarter
May 14
Full

Hourly Weather History & Observations

Time (AKDT) Temp. Windchill Dew Point Humidity Pressure Visibility Wind Dir Wind Speed Gust Speed Precip Events Conditions
12:53 AM 37.0 °F - 24.1 °F 59% 29.47 in 10.0 mi Calm Calm - N/A   Clear
1:53 AM 35.1 °F - 25.0 °F 67% 29.47 in 10.0 mi Calm Calm - N/A   Clear
2:53 AM 35.1 °F 32.2 °F 24.1 °F 64% 29.48 in 10.0 mi East 3.5 mph - N/A   Clear
3:53 AM 34.0 °F - 23.0 °F 64% 29.49 in 10.0 mi Calm Calm - N/A   Clear
4:53 AM 34.0 °F 31.0 °F 21.9 °F 61% 29.49 in 10.0 mi East 3.5 mph - N/A   Clear
5:53 AM 30.9 °F - 21.9 °F 69% 29.51 in 10.0 mi Calm Calm - N/A   Partly Cloudy
6:53 AM 30.0 °F - 21.9 °F 72% 29.52 in 10.0 mi Calm Calm - N/A   Partly Cloudy
7:53 AM 34.0 °F - 23.0 °F 64% 29.54 in 10.0 mi Calm Calm - N/A   Clear
8:53 AM 39.0 °F - 24.1 °F 55% 29.56 in 10.0 mi Calm Calm - N/A   Clear
9:53 AM 44.1 °F - 24.1 °F 45% 29.58 in 10.0 mi Calm Calm - N/A   Clear
10:53 AM 46.0 °F 44.8 °F 28.0 °F 50% 29.61 in 10.0 mi NW 3.5 mph - N/A   Clear
11:53 AM 51.1 °F - 24.1 °F 35% 29.64 in 10.0 mi WNW 4.6 mph - N/A   Partly Cloudy
12:53 PM 53.1 °F - 19.9 °F 27% 29.67 in 10.0 mi Variable 4.6 mph - N/A   Clear
1:53 PM 55.0 °F - 19.9 °F 25% 29.70 in 10.0 mi NW 3.5 mph - N/A   Mostly Cloudy
2:53 PM 57.0 °F - 21.9 °F 26% 29.72 in 10.0 mi NNW 6.9 mph - N/A   Mostly Cloudy
3:53 PM 57.9 °F - 24.1 °F 27% 29.73 in 10.0 mi NW 8.1 mph - N/A   Mostly Cloudy
4:53 PM 57.9 °F - 25.0 °F 28% 29.75 in 10.0 mi WNW 5.8 mph - N/A   Partly Cloudy
5:53 PM 59.0 °F - 26.1 °F 28% 29.76 in 10.0 mi ESE 12.7 mph 23.0 mph N/A   Mostly Cloudy
6:53 PM 57.0 °F - 27.0 °F 32% 29.78 in 10.0 mi SSE 11.5 mph - N/A   Partly Cloudy
7:53 PM 54.0 °F - 26.1 °F 34% 29.81 in 10.0 mi SSE 8.1 mph 17.3 mph N/A   Clear
8:53 PM 50.0 °F - 30.0 °F 46% 29.83 in 10.0 mi South 6.9 mph - N/A   Scattered Clouds
9:53 PM 48.9 °F - 26.1 °F 41% 29.85 in 10.0 mi South 5.8 mph - N/A   Mostly Cloudy
10:53 PM 48.0 °F - 24.1 °F 39% 29.88 in 10.0 mi Calm Calm - N/A   Mostly Cloudy
11:53 PM 46.0 °F 43.9 °F 26.1 °F 46% 29.89 in 10.0 mi West 4.6 mph - N/A   Mostly Cloudy